Location: Shepherdstown, WV
(39.4326°N, 77.8042°W)
Time: 10:36:10
(UTC-04:00)

S-56A Canister/Altair - Pass Details

Date: 28 July 2021
Orbit: 632 x 2500 km, 38.9° (Epoch: 18 September)

Event Time Altitude Azimuth Distance (km) Brightness Sun altitude
Rises 23:58:01 0° 288° (WNW) 5,914 12.6 -28.7°
Reaches altitude 10° 00:02:47 10° 279° (W) 4,682 11.8 -29.1°
Maximum altitude 00:12:51 30° 226° (SW) 2,757 10.0 -29.7°
Enters shadow 00:13:32 30° 220° (SW) 2,721 10.0 -29.7°
